Overview Statistics Trail Chart Weather Telemetry Raw packets
 

This is the latest recevied weather packets stored in our database for station/object KI5NXU. If no packets are shown the sender has not sent any weather packets the latest 10 day(s).

<< 69 70 71 72 73 74 75 >>
Time Temp. Humidity Pressure Rain* Wind** Luminosity Snow
1787881754 33.33° C 41% 1014.7 hPa 0 mm - 0 W/m² -
1787881454 33.33° C 41% 1014.8 hPa 0 mm - 0 W/m² -
1787881151 33.89° C 42% 1014.8 hPa 0 mm - 0 W/m² -
1787880846 33.89° C 42% 1014.7 hPa 0 mm - 0 W/m² -
1787880546 33.89° C 42% 1014.7 hPa 0 mm - 0 W/m² -
1787880243 33.89° C 42% 1014.4 hPa 0 mm - 0 W/m² -
1787879938 33.89° C 43% 1014.5 hPa 0 mm - 0 W/m² -
1787879633 33.89° C 42% 1014.2 hPa 0 mm - 0 W/m² -
1787879330 33.89° C 42% 1014.4 hPa 0 mm - 0 W/m² -
1787879026 33.89° C 43% 1014.3 hPa 0 mm - 0 W/m² -
1787878726 33.89° C 42% 1014.2 hPa 0 mm - 1 W/m² -
1787878425 34.44° C 42% 1014 hPa 0 mm - 5 W/m² -
1787878122 34.44° C 42% 1014.2 hPa 0 mm - 8 W/m² -
1787877817 34.44° C 42% 1014.1 hPa 0 mm - 11 W/m² -
1787877512 34.44° C 42% 1013.9 hPa 0 mm - 10 W/m² -
1787877208 34.44° C 43% 1014 hPa 0 mm - 11 W/m² -
1787876907 34.44° C 44% 1014.1 hPa 0 mm - 16 W/m² -
1787876603 34.44° C 44% 1013.6 hPa 0 mm - 16 W/m² -
1787876303 33.89° C 44% 1013.8 hPa 0 mm - 16 W/m² -
1787876001 34.44° C 44% 1013.9 hPa 0 mm - 18 W/m² -
1787875697 34.44° C 44% 1013.8 hPa 0 mm - 22 W/m² -
1787875395 34.44° C 44% 1014 hPa 0 mm - 29 W/m² -
1787875095 34.44° C 43% 1013.9 hPa 0 mm - 37 W/m² -
1787874790 35° C 43% 1014.3 hPa 0 mm - 46 W/m² -
1787874488 35° C 43% 1014.2 hPa 0 mm - 50 W/m² -

* Rain latest hour (hover to see other rain measurements)
** Current wind speed in m/s (hover to see current wind gust speed)